GW4436 Weather Reports


Display with metric or nautical units.
time (UTC)temp
F
wind
direction
speed
MPH
gust
MPH
rain 1hr
in
rain 24hr
in
rain mn
in
humidity
%
barometer
mb
20260831110013 74 359 1.0 4.0 0.00 0.09 0.00 96 1019.0
20260831110002 74 359 1.0 4.0 0.00 0.09 0.00 96 1018.9
20260831104508 74 353 3.0 5.0 0.00 0.10 0.00 96 1018.9
20260831103003 74 359 2.0 4.0 0.00 0.13 0.00 96 1018.8
20260831101504 74 346 1.0 2.0 0.00 0.15 0.00 96 1018.6
20260831100005 74 1 1.0 3.0 0.00 0.15 0.00 96 1018.5
20260831094505 74 4 0.0 2.0 0.00 0.15 0.00 96 1018.5
20260831093014 74 360 0.0 2.0 0.00 0.15 0.00 96 1018.4
20260831091504 73 359 2.0 3.0 0.00 0.15 0.00 96 1018.4
20260831090004 73 1 0.0 2.0 0.00 0.15 0.00 96 1018.2
20260831084503 73 1 1.0 2.0 0.00 0.15 0.00 96 1018.3
20260831083003 73 1 0.0 2.0 0.00 0.15 0.00 96 1018.3
20260831081506 74 1 0.0 2.0 0.00 0.15 0.00 96 1018.4
20260831080003 73 1 1.0 3.0 0.00 0.15 0.00 96 1018.5
20260831074505 73 337 1.0 2.0 0.00 0.15 0.00 96 1018.6
20260831073006 73 14 1.0 2.0 0.00 0.15 0.00 95 1018.4
20260831071505 73 69 0.0 2.0 0.00 0.15 0.00 95 1018.5
20260831070005 74 69 0.0 0.0 0.00 0.15 0.00 95 1018.5
20260831064511 74 69 0.0 2.0 0.00 0.15 0.00 95 1018.5
20260831063013 74 69 0.0 0.0 0.00 0.15 0.00 95 1018.7
20260831061504 74 69 0.0 2.0 0.00 0.15 0.00 95 1018.7
20260831060005 74 69 0.0 2.0 0.00 0.15 0.00 95 1018.8
20260831054506 74 35 0.0 2.0 0.00 0.15 0.00 95 1019.1
20260831053011 74 20 1.0 3.0 0.00 0.15 0.00 95 1019.4
20260831051510 74 345 1.0 1.0 0.00 0.15 0.00 94 1019.3
20260831050006 74 345 0.0 2.0 0.00 0.15 0.00 94 1019.3
20260831044511 74 343 1.0 4.0 0.00 0.15 0.00 94 1019.4
20260831043013 75 360 2.0 3.0 0.00 0.15 0.00 94 1019.3
20260831041513 75 7 1.0 3.0 0.00 0.15 0.00 94 1019.3
20260831040013 75 7 1.0 4.0 0.00 0.15 0.00 94 1019.3
20260831034505 75 4 2.0 3.0 0.00 0.15 0.15 94 1019.6
20260831033002 75 37 1.0 1.0 0.00 0.15 0.15 94 1019.8
20260831031503 75 37 0.0 2.0 0.00 0.15 0.15 93 1019.9
20260831030004 75 37 0.0 2.0 0.00 0.15 0.15 93 1019.9
20260831024511 75 37 0.0 2.0 0.00 0.15 0.15 93 1020.0
20260831023009 75 23 0.0 2.0 0.00 0.15 0.15 93 1019.9
20260831021503 76 23 0.0 0.0 0.00 0.15 0.15 92 1019.8
20260831020004 76 23 1.0 2.0 0.00 0.15 0.15 91 1019.8
20260831014506 77 23 0.0 2.0 0.00 0.15 0.15 91 1019.7
20260831013022 77 120 0.0 2.0 0.00 0.15 0.15 90 1019.5
20260831011518 77 66 0.0 3.0 0.00 0.15 0.15 90 1019.5
20260831010003 77 82 1.0 4.0 0.00 0.15 0.15 89 1019.3
20260831004504 78 75 1.0 2.0 0.00 0.15 0.15 88 1019.2
20260831003014 78 64 0.0 3.0 0.00 0.15 0.15 87 1019.1
20260831001523 79 193 0.0 2.0 0.00 0.15 0.15 86 1019.2
20260831000016 79 52 1.0 3.0 0.00 0.15 0.15 85 1019.0
20260830234513 80 155 0.0 2.0 0.00 0.15 0.15 83 1019.1
20260830233006 81 74 1.0 4.0 0.00 0.15 0.15 82 1019.2
20260830231515 81 360 2.0 8.0 0.00 0.15 0.15 81 1019.2
20260830230018 82 46 2.0 9.0 0.00 0.15 0.15 81 1019.0
20260830224518 82 71 2.0 9.0 0.00 0.15 0.15 81 1019.1
20260830223008 83 80 4.0 8.0 0.00 0.15 0.15 81 1018.7
20260830221521 83 87 4.0 9.0 0.00 0.15 0.15 82 1018.3
20260830220016 84 53 4.0 12.0 0.00 0.15 0.15 82 1018.3
20260830214519 83 36 3.0 10.0 0.00 0.15 0.15 83 1018.4
20260830213018 84 32 7.0 13.0 0.00 0.15 0.15 80 1018.4
20260830211522 85 60 5.0 9.0 0.00 0.15 0.15 81 1018.5
20260830210020 84 41 6.0 14.0 0.00 0.15 0.15 77 1018.4
20260830204520 84 32 7.0 14.0 0.00 0.15 0.15 78 1018.7
20260830203025 85 20 8.0 12.0 0.00 0.15 0.15 78 1018.7
20260830201508 84 56 6.0 12.0 0.00 0.15 0.15 81 1019.3
20260830200025 83 7 5.0 11.0 0.00 0.15 0.15 75 1019.4
20260830194518 83 76 6.0 11.0 0.00 0.15 0.15 79 1019.3
20260830193024 82 91 6.0 14.0 0.01 0.15 0.15 78 1019.4
20260830190032 83 12 7.0 9.0 0.05 0.15 0.15 83 1019.5
20260830184519 81 357 5.0 7.0 0.05 0.15 0.15 88 1019.3
20260830183028 81 17 3.0 15.0 0.04 0.14 0.14 85 1019.6
20260830181530 83 360 7.0 13.0 0.00 0.10 0.10 76 1019.9
20260830180012 86 37 7.0 15.0 0.00 0.10 0.10 72 1019.9
20260830174515 86 63 3.0 7.0 0.00 0.10 0.10 74 1019.9
20260830173003 86 57 4.0 6.0 0.00 0.10 0.10 74 1020.0
20260830171504 86 46 5.0 9.0 0.00 0.10 0.10 71 1020.1
20260830170011 87 36 3.0 7.0 0.00 0.10 0.10 70 1020.1
20260830164516 87 350 3.0 7.0 0.00 0.10 0.10 71 1020.6
20260830163034 87 152 3.0 6.0 0.00 0.10 0.10 73 1021.0
20260830161527 86 142 3.0 9.0 0.00 0.10 0.10 76 1021.2
20260830160032 85 359 5.0 6.0 0.00 0.10 0.10 79 1021.3
20260830154510 85 63 3.0 6.0 0.00 0.10 0.10 77 1021.4
20260830153038 84 60 2.0 7.0 0.00 0.10 0.10 80 1021.4
20260830151534 83 61 4.0 4.0 0.00 0.10 0.10 82 1021.4
20260830150039 82 38 2.0 4.0 0.00 0.10 0.10 86 1021.4
20260830144536 81 77 0.0 2.0 0.00 0.10 0.10 88 1021.4
20260830143014 80 73 0.0 2.0 0.00 0.10 0.10 90 1021.1
20260830141520 79 87 1.0 2.0 0.00 0.10 0.10 91 1021.2
20260830140033 78 82 2.0 3.0 0.00 0.10 0.10 92 1021.3
20260830134538 77 143 1.0 3.0 0.00 0.10 0.10 93 1021.4
20260830133015 77 23 2.0 3.0 0.00 0.10 0.10 95 1021.4
20260830131519 76 1 1.0 2.0 0.00 0.10 0.10 96 1020.9
20260830130028 75 146 0.0 2.0 0.00 0.10 0.10 96 1020.6
20260830124532 74 153 1.0 2.0 0.01 0.10 0.10 96 1020.5
20260830123012 74 21 0.0 2.0 0.02 0.10 0.10 96 1020.2
20260830121522 74 21 0.0 2.0 0.03 0.10 0.10 96 1020.1
20260830120025 73 21 0.0 2.0 0.04 0.10 0.10 96 1020.1
20260830114532 73 51 2.0 3.0 0.04 0.09 0.09 95 1020.0
20260830113012 73 89 0.0 2.0 0.06 0.08 0.08 95 1020.1
20260830111518 74 87 1.0 2.0 0.07 0.07 0.07 95 1020.1